Content
SEND FEEDBACK

United States of America Flag

NEWALLA, OKLAHOMA


Home > North America > United States > Oklahoma
Elevation: 1150 feet     Latitude: 35 17N     Longitude: 097 13W

WEATHER
 
SELECT A DAY
Number of Records: 377,118;   Date Range: 9/29/00 - 3/22/16
 
SHARE

PRINT THIS DATA

[ ← Previous Day ]
WEATHER ALMANAC - JANUARY 30, 2013
[ Next Day → ]
[ °C ]   °F
Weather ElementAverageHighLow
Temperature37.4 °F44.6 °F (2:35 pm)32 °F (9:55 pm)
Dewpoint28.2 °F35.6 °F (1:35 am)21.2 °F (5:55 pm)
Humidity71.4 %93 % (1:35 am)43 % (4:35 pm)
Barometer29.94 in30.07 in (8:35 pm)29.68 in (12:35 am)
Wind Speed13.8 mph23 mph (9:55 am)
Wind Gust32.2 mph (9:55 am)
Weather ElementAverage
Visibility10 mi
Wind DirectionW (274.3 °)

Weather ElementTotal
Precipitation---
Heating Degree Days26.7 (Base 65)
Averaged from 70 records on January 30, 2013
WEATHER CONDITIONS BREAKOUT
WIND DIRECTION BREAKOUT
WEATHER BY HOUR - JANUARY 30, 2013
[ °C ]   °F
Local TimeTemperatureDewpointHumidityBarometerVisibilityWind DirectionWind SpeedGust SpeedPrecipitationEventsConditions
12:35 AM37.4 °F33.8 °F87 %29.68 in10.0 miNNW (330°)12.7 mph20.7 mphOvercast
12:55 AM37.4 °F33.8 °F87 %29.69 in10.0 miNW (320°)13.8 mphOvercast
1:15 AM37.4 °F33.8 °F87 %29.69 in10.0 miWNW (300°)11.5 mph20.7 mphOvercast
1:35 AM37.4 °F35.6 °F93 %29.69 in10.0 miWNW (300°)16.1 mph19.6 mphOvercast
1:55 AM37.4 °F33.8 °F87 %29.70 in10.0 miNW (310°)16.1 mph24.2 mphOvercast
2:15 AM37.4 °F33.8 °F87 %29.70 in10.0 miNW (310°)19.6 mph26.5 mphOvercast
2:35 AM37.4 °F33.8 °F87 %29.70 in10.0 miNW (310°)19.6 mph24.2 mphOvercast
2:55 AM35.6 °F32.0 °F87 %29.72 in10.0 miNW (310°)18.4 mph31.1 mphOvercast
3:15 AM35.6 °F32.0 °F87 %29.72 in10.0 miNW (320°)18.4 mph24.2 mphOvercast
3:35 AM35.6 °F32.0 °F87 %29.74 in10.0 miNW (310°)18.4 mph29.9 mphOvercast
3:55 AM35.6 °F32.0 °F87 %29.75 in10.0 miWNW (300°)20.7 mph27.6 mphOvercast
4:15 AM35.6 °F32.0 °F87 %29.76 in10.0 miNW (320°)17.3 mph27.6 mphOvercast
4:35 AM35.6 °F32.0 °F87 %29.77 in10.0 miNNW (330°)17.3 mph25.3 mphOvercast
4:55 AM35.6 °F30.2 °F81 %29.78 in10.0 miNW (320°)19.6 mph27.6 mphOvercast
5:15 AM35.6 °F32.0 °F87 %29.79 in10.0 miNNW (330°)19.6 mph26.5 mphOvercast
5:55 AM35.6 °F32.0 °F87 %29.81 in10.0 miNW (320°)16.1 mph24.2 mphOvercast
6:15 AM35.6 °F32.0 °F87 %29.82 in10.0 miNW (310°)19.6 mph25.3 mphOvercast
6:35 AM33.8 °F32.0 °F93 %29.84 in10.0 miNW (320°)21.9 mph28.8 mphMostly Cloudy
6:55 AM33.8 °F30.2 °F87 %29.86 in10.0 miNW (320°)17.3 mphMostly Cloudy
7:15 AM33.8 °F32.0 °F93 %29.88 in10.0 miNW (320°)17.3 mph26.5 mphOvercast
7:35 AM33.8 °F32.0 °F93 %29.89 in10.0 miNW (320°)17.3 mph31.1 mphOvercast
7:55 AM33.8 °F32.0 °F93 %29.90 in10.0 miNNW (330°)20.7 mph26.5 mphOvercast
8:15 AM33.8 °F30.2 °F87 %29.92 in10.0 miNW (320°)18.4 mph23.0 mphMostly Cloudy
8:35 AM33.8 °F32.0 °F93 %29.94 in10.0 miNW (320°)15.0 mph23.0 mphScattered Clouds
8:55 AM33.8 °F32.0 °F93 %29.94 in10.0 miNW (320°)18.4 mph24.2 mphScattered Clouds
9:15 AM35.6 °F32.0 °F87 %29.96 in10.0 miNW (320°)17.3 mph29.9 mphMostly Cloudy
9:35 AM35.6 °F32.0 °F87 %29.96 in10.0 miNW (320°)20.7 mph26.5 mphMostly Cloudy
9:55 AM37.4 °F32.0 °F81 %29.97 in10.0 miNW (310°)23.0 mph32.2 mphMostly Cloudy
10:15 AM35.6 °F30.2 °F81 %29.98 in10.0 miWNW (300°)21.9 mph32.2 mphMostly Cloudy
10:35 AM37.4 °F30.2 °F75 %29.99 in10.0 miWNW (300°)20.7 mph26.5 mphOvercast
10:55 AM37.4 °F30.2 °F75 %30.00 in10.0 miNW (310°)17.3 mph27.6 mphMostly Cloudy
11:15 AM37.4 °F30.2 °F75 %30.00 in10.0 miNW (310°)18.4 mph28.8 mphScattered Clouds
11:35 AM39.2 °F30.2 °F70 %30.01 in10.0 miNW (320°)17.3 mph27.6 mphScattered Clouds
11:55 AM41.0 °F30.2 °F65 %30.01 in10.0 miWNW (300°)17.3 mphScattered Clouds
12:15 PM41.0 °F30.2 °F65 %30.01 in10.0 miNW (310°)17.3 mph25.3 mphScattered Clouds
12:35 PM41.0 °F30.2 °F65 %30.01 in10.0 miNW (320°)16.1 mph26.5 mphScattered Clouds
12:55 PM41.0 °F28.4 °F61 %30.01 in10.0 miNW (310°)15.0 mph25.3 mphScattered Clouds
1:15 PM41.0 °F28.4 °F61 %30.01 in10.0 miNW (310°)17.3 mph23.0 mphMostly Cloudy
1:35 PM41.0 °F28.4 °F61 %30.01 in10.0 miWNW (300°)21.9 mph27.6 mphMostly Cloudy
1:55 PM41.0 °F28.4 °F61 %30.01 in10.0 miWNW (300°)15.0 mph27.6 mphMostly Cloudy
2:15 PM42.8 °F28.4 °F57 %30.00 in10.0 miWNW (290°)13.8 mph21.9 mphScattered Clouds
2:35 PM44.6 °F28.4 °F53 %30.00 in10.0 miWest (280°)15.0 mphMostly Cloudy
2:55 PM44.6 °F28.4 °F53 %29.99 in10.0 miWest (280°)15.0 mph24.2 mphOvercast
3:15 PM44.6 °F28.4 °F53 %29.99 in10.0 miWNW (290°)13.8 mph20.7 mphMostly Cloudy
3:35 PM44.6 °F26.6 °F49 %29.99 in10.0 miWNW (290°)18.4 mph23.0 mphMostly Cloudy
3:55 PM44.6 °F24.8 °F46 %30.00 in10.0 miWNW (300°)17.3 mph26.5 mphScattered Clouds
4:15 PM44.6 °F24.8 °F46 %30.00 in10.0 miWest (280°)16.1 mph25.3 mphScattered Clouds
4:35 PM44.6 °F23.0 °F43 %30.00 in10.0 miWNW (300°)18.4 mph26.5 mphScattered Clouds
4:55 PM44.6 °F23.0 °F43 %30.00 in10.0 miWest (280°)16.1 mph24.2 mphScattered Clouds
5:15 PM42.8 °F23.0 °F46 %30.01 in10.0 miWNW (290°)17.3 mph21.9 mphClear
5:35 PM42.8 °F23.0 °F46 %30.02 in10.0 miWNW (300°)15.0 mphClear
5:55 PM41.0 °F21.2 °F45 %30.02 in10.0 miWNW (290°)13.8 mph17.3 mphClear
6:15 PM39.2 °F23.0 °F52 %30.03 in10.0 miWNW (300°)8.1 mphClear
6:35 PM37.4 °F23.0 °F56 %30.04 in10.0 miWest (270°)5.8 mphClear
6:55 PM37.4 °F23.0 °F56 %30.04 in10.0 miWest (270°)4.6 mphClear
7:15 PM37.4 °F23.0 °F56 %30.05 in10.0 miWest (280°)3.5 mphClear
7:35 PM35.6 °F23.0 °F60 %30.05 in10.0 miSW (230°)3.5 mphClear
7:55 PM37.4 °F23.0 °F56 %30.06 in10.0 miSW (230°)3.5 mphClear
8:15 PM35.6 °F23.0 °F60 %30.06 in10.0 miCalmClear
8:35 PM33.8 °F23.0 °F65 %30.07 in10.0 miCalmClear
8:55 PM33.8 °F23.0 °F65 %30.07 in10.0 miWSW (240°)3.5 mphClear
9:15 PM33.8 °F23.0 °F65 %30.07 in10.0 miCalmClear
9:35 PM33.8 °F23.0 °F65 %30.07 in10.0 miCalmClear
9:55 PM32.0 °F23.0 °F69 %30.06 in10.0 miCalmClear
10:15 PM32.0 °F23.0 °F69 %30.07 in10.0 miSSW (200°)4.6 mphClear
10:35 PM32.0 °F23.0 °F69 %30.07 in10.0 miSW (230°)3.5 mphClear
10:55 PM32.0 °F23.0 °F69 %30.07 in10.0 miSW (230°)3.5 mphClear
11:15 PM32.0 °F23.0 °F69 %30.07 in10.0 miSW (230°)4.6 mphClear
11:35 PM32.0 °F23.0 °F69 %30.07 in10.0 miSW (230°)3.5 mphClear
11:55 PM32.0 °F23.0 °F69 %30.07 in10.0 miSW (230°)4.6 mphClear
Hourly data recorded from KOUN, located miles away from Newalla, Oklahoma




STORIES FROM OUR PARTNERS